Time,TemperatureF,DewpointF,PressureIn,WindDirection,WindDirectionDegrees,WindSpeedMPH,WindSpeedGustMPH,Humidity,HourlyPrecipIn,Conditions,Clouds,dailyrainin,SoftwareType,DateUTC
2013-09-23 01:22:00,52.0,44.0,-100.00,SE,125,6.0,14.0,76,-99.99,,,-99.99,,2013-09-23 06:22:00,
2013-09-23 01:32:00,52.0,44.0,-100.00,SE,125,6.0,14.0,76,-99.99,,,-99.99,,2013-09-23 06:32:00,
2013-09-23 01:42:00,52.0,44.0,-100.00,SE,125,6.0,14.0,76,-99.99,,,-99.99,,2013-09-23 06:42:00,
2013-09-23 01:52:00,52.0,44.0,-100.00,SE,125,6.0,14.0,76,-99.99,,,-99.99,,2013-09-23 06:52:00,
2013-09-23 03:23:00,49.0,44.0,-100.00,East,100,3.0,9.0,84,-99.99,,,-99.99,,2013-09-23 08:23:00,
2013-09-23 03:32:00,49.0,44.0,-100.00,East,100,3.0,9.0,84,-99.99,,,-99.99,,2013-09-23 08:32:00,
2013-09-23 03:42:00,49.0,44.0,-100.00,East,100,3.0,9.0,84,-99.99,,,-99.99,,2013-09-23 08:42:00,
2013-09-23 03:52:00,49.0,44.0,-100.00,East,100,3.0,9.0,84,-99.99,,,-99.99,,2013-09-23 08:52:00,
2013-09-23 05:23:00,47.0,45.0,-100.00,SE,140,3.0,9.0,93,-99.99,,,-99.99,,2013-09-23 10:23:00,
2013-09-23 05:33:00,47.0,45.0,-100.00,SE,140,3.0,9.0,93,-99.99,,,-99.99,,2013-09-23 10:33:00,
2013-09-23 05:42:00,47.0,45.0,-100.00,SE,140,3.0,9.0,93,-99.99,,,-99.99,,2013-09-23 10:42:00,
2013-09-23 05:52:00,47.0,45.0,-100.00,SE,140,3.0,9.0,93,-99.99,,,-99.99,,2013-09-23 10:52:00,
2013-09-23 06:22:00,47.0,45.0,-100.00,SE,130,4.0,11.0,94,-99.99,,,-99.99,,2013-09-23 11:22:00,
2013-09-23 06:33:00,47.0,45.0,-100.00,SE,130,4.0,11.0,94,-99.99,,,-99.99,,2013-09-23 11:33:00,
2013-09-23 06:42:00,47.0,45.0,-100.00,SE,130,4.0,11.0,94,-99.99,,,-99.99,,2013-09-23 11:42:00,
2013-09-23 07:22:00,47.0,45.0,-100.00,SE,145,3.0,8.0,96,-99.99,,,-99.99,,2013-09-23 12:22:00,
2013-09-23 07:32:00,47.0,45.0,-100.00,SE,145,3.0,8.0,96,-99.99,,,-99.99,,2013-09-23 12:32:00,
2013-09-23 08:22:00,48.0,47.0,-100.00,SE,130,4.0,11.0,96,-99.99,,,-99.99,,2013-09-23 13:22:00,
2013-09-23 08:32:00,48.0,47.0,-100.00,SE,130,4.0,11.0,96,-99.99,,,-99.99,,2013-09-23 13:32:00,
2013-09-23 08:42:00,48.0,47.0,-100.00,SE,130,4.0,11.0,96,-99.99,,,-99.99,,2013-09-23 13:42:00,
2013-09-23 08:50:00,52.0,47.0,-100.00,SE,135,6.0,15.0,83,-99.99,,,-99.99,,2013-09-23 13:50:00,
2013-09-23 08:52:00,48.0,47.0,-100.00,SE,130,4.0,11.0,96,-99.99,,,-99.99,,2013-09-23 13:52:00,
2013-09-23 09:22:00,52.0,47.0,-100.00,SE,135,6.0,15.0,83,-99.99,,,-99.99,,2013-09-23 14:22:00,
2013-09-23 09:32:00,52.0,47.0,-100.00,SE,135,6.0,15.0,83,-99.99,,,-99.99,,2013-09-23 14:32:00,
2013-09-23 09:42:00,52.0,47.0,-100.00,SE,135,6.0,15.0,83,-99.99,,,-99.99,,2013-09-23 14:42:00,
2013-09-23 11:24:00,61.0,48.0,-100.00,SE,145,9.0,16.0,62,-99.99,,,-99.99,,2013-09-23 16:24:00,
2013-09-23 11:33:00,61.0,48.0,-100.00,SE,145,9.0,16.0,62,-99.99,,,-99.99,,2013-09-23 16:33:00,
2013-09-23 11:43:00,61.0,48.0,-100.00,SE,145,9.0,16.0,62,-99.99,,,-99.99,,2013-09-23 16:43:00,
2013-09-23 11:53:00,61.0,48.0,-100.00,SE,145,9.0,16.0,62,-99.99,,,-99.99,,2013-09-23 16:53:00,
2013-09-23 13:22:00,69.0,49.0,-100.00,SSE,165,6.0,19.0,50,-99.99,,,-99.99,,2013-09-23 18:22:00,
2013-09-23 13:33:00,69.0,49.0,-100.00,SSE,165,6.0,19.0,50,-99.99,,,-99.99,,2013-09-23 18:33:00,
2013-09-23 13:42:00,69.0,49.0,-100.00,SSE,165,6.0,19.0,50,-99.99,,,-99.99,,2013-09-23 18:42:00,
2013-09-23 13:52:00,69.0,49.0,-100.00,SSE,165,6.0,19.0,50,-99.99,,,-99.99,,2013-09-23 18:52:00,
2013-09-23 14:22:00,71.0,49.0,-100.00,ESE,105,6.0,16.0,46,-99.99,,,-99.99,,2013-09-23 19:22:00,
2013-09-23 14:33:00,71.0,49.0,-100.00,ESE,105,6.0,16.0,46,-99.99,,,-99.99,,2013-09-23 19:33:00,
2013-09-23 14:42:00,71.0,49.0,-100.00,ESE,105,6.0,16.0,46,-99.99,,,-99.99,,2013-09-23 19:42:00,
2013-09-23 18:22:00,70.0,47.0,-100.00,ESE,115,6.0,16.0,43,-99.99,,,-99.99,,2013-09-23 23:22:00,
2013-09-23 18:34:00,70.0,47.0,-100.00,ESE,115,6.0,16.0,43,-99.99,,,-99.99,,2013-09-23 23:34:00,
2013-09-23 18:42:00,70.0,47.0,-100.00,ESE,115,6.0,16.0,43,-99.99,,,-99.99,,2013-09-23 23:42:00,
2013-09-23 18:53:00,70.0,47.0,-100.00,ESE,115,6.0,16.0,43,-99.99,,,-99.99,,2013-09-23 23:53:00,